Previsão horária em Cegielnia

Hoje, 30 Julho, Sexta-feira

Tempo Temperatura Precipitação Vento Pressão Humidade
00:00 +19°C° 0 mm 2 m/s 737 mmHg 65%
01:00 +18°C° 0 mm 2 m/s 737 mmHg 68%
02:00 +17°C° 0 mm 2 m/s 737 mmHg 71%
03:00 +17°C° 0 mm 2 m/s 737 mmHg 73%
04:00 +16°C° 0 mm 2 m/s 737 mmHg 76%
05:00 +18°C° 0 mm 2 m/s 737 mmHg 72%
06:00 +19°C° 0 mm 2 m/s 737 mmHg 68%
07:00 +20°C° 0 mm 2 m/s 737 mmHg 64%
08:00 +22°C° 0 mm 3 m/s 737 mmHg 57%
09:00 +23°C° 0 mm 4 m/s 737 mmHg 51%
10:00 +26°C° 0 mm 4 m/s 737 mmHg 44%
11:00 +27°C° 0 mm 5 m/s 737 mmHg 42%
12:00 +28°C° 0 mm 5 m/s 736 mmHg 40%
13:00 +29°C° 0 mm 5 m/s 736 mmHg 37%
14:00 +29°C° 0 mm 5 m/s 736 mmHg 38%
15:00 +29°C° 0 mm 5 m/s 735 mmHg 38%
16:00 +29°C° 0 mm 5 m/s 735 mmHg 39%
17:00 +28°C° 0 mm 4 m/s 735 mmHg 44%
18:00 +26°C° 0 mm 3 m/s 735 mmHg 50%
19:00 +24°C° 0 mm 2 m/s 735 mmHg 56%
20:00 +23°C° 0 mm 1 m/s 735 mmHg 57%
21:00 +23°C° 0 mm 1 m/s 735 mmHg 58%
22:00 +20°C° 0 mm 0 m/s 735 mmHg 59%
23:00 +21°C° 0 mm 1 m/s 735 mmHg 60%

Amanhã, 31 Julho, Sábado

Tempo Temperatura Precipitação Vento Pressão Humidade
00:00 +21°C° 0 mm 1 m/s 735 mmHg 61%
01:00 +21°C° 0 mm 1 m/s 735 mmHg 62%
02:00 +20°C° 0 mm 1 m/s 735 mmHg 64%
03:00 +20°C° 0 mm 1 m/s 734 mmHg 66%
04:00 +20°C° 0 mm 1 m/s 734 mmHg 68%
05:00 +21°C° 0 mm 1 m/s 734 mmHg 66%
06:00 +23°C° 0 mm 1 m/s 734 mmHg 63%
07:00 +24°C° 0 mm 1 m/s 734 mmHg 61%
08:00 +26°C° 0 mm 2 m/s 734 mmHg 58%
09:00 +27°C° 0 mm 2 m/s 734 mmHg 55%
10:00 +28°C° 0 mm 2 m/s 734 mmHg 52%
11:00 +27°C° 0.4 mm 3 m/s 734 mmHg 57%
12:00 +26°C° 0.4 mm 5 m/s 734 mmHg 62%
13:00 +24°C° 0.4 mm 6 m/s 734 mmHg 67%
14:00 +23°C° 0.8 mm 5 m/s 734 mmHg 71%
15:00 +22°C° 0.8 mm 4 m/s 735 mmHg 75%
16:00 +22°C° 0.8 mm 3 m/s 735 mmHg 78%
17:00 +21°C° 0.1 mm 3 m/s 735 mmHg 80%
18:00 +20°C° 0.1 mm 4 m/s 735 mmHg 81%
19:00 +20°C° 0.1 mm 4 m/s 735 mmHg 83%
20:00 +19°C° 0 mm 4 m/s 735 mmHg 85%
21:00 +19°C° 0 mm 3 m/s 735 mmHg 87%
22:00 +18°C° 0 mm 3 m/s 735 mmHg 89%
23:00 +18°C° 0 mm 3 m/s 735 mmHg 88%

Depois de amanhã, 1 Agosto, Domingo

Tempo Temperatura Precipitação Vento Pressão Humidade
00:00 +18°C° 0 mm 3 m/s 735 mmHg 86%
01:00 +17°C° 0 mm 2 m/s 735 mmHg 84%
02:00 +17°C° 0 mm 2 m/s 735 mmHg 82%
03:00 +16°C° 0 mm 2 m/s 735 mmHg 80%
04:00 +16°C° 0 mm 1 m/s 735 mmHg 78%
05:00 +18°C° 0 mm 1 m/s 735 mmHg 73%
06:00 +19°C° 0 mm 1 m/s 735 mmHg 67%
07:00 +21°C° 0 mm 1 m/s 735 mmHg 62%
08:00 +21°C° 0 mm 2 m/s 735 mmHg 60%
09:00 +21°C° 0 mm 2 m/s 735 mmHg 58%
10:00 +23°C° 0 mm 2 m/s 734 mmHg 56%
11:00 +22°C° 0.1 mm 3 m/s 734 mmHg 60%
12:00 +21°C° 0.1 mm 3 m/s 734 mmHg 64%
13:00 +20°C° 0.1 mm 4 m/s 734 mmHg 68%
14:00 +20°C° 0.6 mm 4 m/s 734 mmHg 72%
15:00 +19°C° 0.6 mm 4 m/s 734 mmHg 76%
16:00 +17°C° 0.6 mm 5 m/s 734 mmHg 80%
17:00 +16°C° 0.5 mm 5 m/s 734 mmHg 83%
18:00 +17°C° 0.5 mm 4 m/s 734 mmHg 85%
19:00 +15°C° 0.5 mm 4 m/s 734 mmHg 87%
20:00 +16°C° 0 mm 3 m/s 734 mmHg 88%
21:00 +16°C° 0 mm 3 m/s 735 mmHg 90%
22:00 +15°C° 0 mm 2 m/s 735 mmHg 91%
23:00 +15°C° 0.3 mm 2 m/s 735 mmHg 92%

2 Agosto, Segunda-feira

Tempo Temperatura Precipitação Vento Pressão Humidade
00:00 +15°C° 0.3 mm 2 m/s 735 mmHg 93%
01:00 +15°C° 0.3 mm 2 m/s 735 mmHg 94%
02:00 +15°C° 0.3 mm 2 m/s 735 mmHg 94%
03:00 +15°C° 0.3 mm 2 m/s 735 mmHg 95%
04:00 +15°C° 0.3 mm 2 m/s 735 mmHg 95%
05:00 +16°C° 0 mm 3 m/s 735 mmHg 90%
06:00 +16°C° 0 mm 3 m/s 735 mmHg 85%
07:00 +17°C° 0 mm 4 m/s 736 mmHg 80%
08:00 +19°C° 0 mm 4 m/s 736 mmHg 72%
09:00 +20°C° 0 mm 4 m/s 736 mmHg 64%
10:00 +22°C° 0 mm 5 m/s 736 mmHg 57%
11:00 +23°C° 0.1 mm 5 m/s 736 mmHg 53%
12:00 +23°C° 0.1 mm 5 m/s 736 mmHg 50%
13:00 +25°C° 0.1 mm 5 m/s 736 mmHg 46%
14:00 +23°C° 0 mm 5 m/s 736 mmHg 48%
15:00 +23°C° 0 mm 4 m/s 737 mmHg 50%
16:00 +23°C° 0 mm 4 m/s 737 mmHg 53%
17:00 +22°C° 0 mm 3 m/s 737 mmHg 57%
18:00 +20°C° 0 mm 3 m/s 737 mmHg 62%
19:00 +19°C° 0 mm 2 m/s 737 mmHg 66%
20:00 +18°C° 0.1 mm 2 m/s 737 mmHg 72%
21:00 +17°C° 0.1 mm 2 m/s 738 mmHg 78%
22:00 +16°C° 0.1 mm 2 m/s 738 mmHg 83%
23:00 +16°C° 0 mm 2 m/s 738 mmHg 85%

3 Agosto, Terça-feira

Tempo Temperatura Precipitação Vento Pressão Humidade
00:00 +15°C° 0 mm 2 m/s 739 mmHg 86%
01:00 +15°C° 0 mm 2 m/s 739 mmHg 87%
02:00 +14°C° 0 mm 2 m/s 739 mmHg 88%
03:00 +14°C° 0 mm 2 m/s 739 mmHg 88%
04:00 +14°C° 0 mm 2 m/s 739 mmHg 89%
05:00 +14°C° 0 mm 3 m/s 740 mmHg 82%
06:00 +16°C° 0 mm 3 m/s 740 mmHg 74%
07:00 +18°C° 0 mm 3 m/s 740 mmHg 67%
08:00 +19°C° 0 mm 3 m/s 740 mmHg 60%
09:00 +20°C° 0 mm 3 m/s 740 mmHg 54%
10:00 +22°C° 0 mm 3 m/s 741 mmHg 47%
11:00 +24°C° 0 mm 3 m/s 740 mmHg 45%
12:00 +24°C° 0 mm 3 m/s 740 mmHg 43%
13:00 +25°C° 0 mm 3 m/s 740 mmHg 41%
14:00 +25°C° 0 mm 3 m/s 740 mmHg 41%
15:00 +25°C° 0 mm 2 m/s 739 mmHg 42%
16:00 +25°C° 0 mm 2 m/s 739 mmHg 42%
17:00 +24°C° 0 mm 2 m/s 739 mmHg 48%
18:00 +21°C° 0 mm 2 m/s 739 mmHg 53%
19:00 +20°C° 0 mm 2 m/s 739 mmHg 59%
20:00 +19°C° 0 mm 2 m/s 739 mmHg 60%
21:00 +18°C° 0 mm 2 m/s 739 mmHg 61%
22:00 +18°C° 0 mm 3 m/s 739 mmHg 61%
23:00 +17°C° 0 mm 3 m/s 739 mmHg 63%

4 Agosto, Quarta-feira

Tempo Temperatura Precipitação Vento Pressão Humidade
00:00 +17°C° 0 mm 3 m/s 739 mmHg 64%
01:00 +17°C° 0 mm 3 m/s 739 mmHg 65%
02:00 +17°C° 0 mm 3 m/s 739 mmHg 65%
03:00 +17°C° 0 mm 3 m/s 738 mmHg 65%
04:00 +17°C° 0 mm 3 m/s 738 mmHg 64%
05:00 +17°C° 0 mm 3 m/s 738 mmHg 65%
06:00 +17°C° 0 mm 3 m/s 738 mmHg 65%
07:00 +18°C° 0 mm 3 m/s 738 mmHg 66%
08:00 +18°C° 0.1 mm 3 m/s 738 mmHg 68%
09:00 +19°C° 0.1 mm 3 m/s 739 mmHg 70%
10:00 +19°C° 0.1 mm 3 m/s 739 mmHg 72%
11:00 +19°C° 0.2 mm 3 m/s 739 mmHg 76%
12:00 +19°C° 0.2 mm 3 m/s 739 mmHg 80%
13:00 +19°C° 0.2 mm 3 m/s 739 mmHg 83%
14:00 +19°C° 0.2 mm 3 m/s 739 mmHg 83%
15:00 +19°C° 0.2 mm 3 m/s 739 mmHg 83%
16:00 +19°C° 0.2 mm 3 m/s 738 mmHg 83%
17:00 +19°C° 0 mm 2 m/s 738 mmHg 85%
18:00 +18°C° 0 mm 2 m/s 738 mmHg 86%
19:00 +18°C° 0 mm 2 m/s 738 mmHg 88%
20:00 +18°C° 0 mm 2 m/s 738 mmHg 90%
21:00 +17°C° 0 mm 2 m/s 738 mmHg 92%
22:00 +17°C° 0 mm 2 m/s 738 mmHg 94%
23:00 +17°C° 0 mm 2 m/s 738 mmHg 94%
Mostrar mais

Necessitamos do seu Consentimento

A Meteoprog e os seus Fornecedores de Serviços podem armazenar e aceder a dados pessoais como cookies, identificadores do dispositivo ou outras tecnologias semelhantes existentes no seu dispositivo e processar estes dados para personalizar conteúdos e anúncios, assim como funcionalidades nas redes sociais e análise de tráfego.

  • Armazenar e/ou aceder a informações no seu dispositivo

    Os cookies, identificadores do dispositivo ou outras informações podem ser armazenados ou acedidos no seu dispositivo, para os fins acima indicados.

  • Anúncios e conteúdos personalizados, medição de anúncios e conteúdos, dados sobre o público-alvo e desenvolvimento de produtos

    Os anúncios e os conteúdos podem ser personalizados com base num perfil. Podem ser adicionados dados adicionais para uma maior personalização dos anúncios e dos conteúdos. A eficácia dos anúncios e dos conteúdos pode ser medida. Podem ser obtidas informações sobre o público que visualizou os anúncios e os conteúdos. Estes dados podem ser usados para desenvolver ou melhorar sistemas, softwares ou a experiência do utilizador.

Ao clicar em "Eu concordo”, permitirá o uso de cookies, identificadores do dispositivo e web beacons mencionados ou outras tecnologias semelhantes. As configurações do navegador do seu dispositivo podem ser alteradas.

Para certos fins, podem ser invocados interesses legítimos ao invés de consentimento. Pode ler mais informação sobre este assunto na nossa Política de Privacidade e Cookies.